Regional Weather Roundup
Issued by NWS Sterling, VA

Home | Current Version | Previous Version | Graphics & Text | Print | Product List | Glossary On
Versions: 1 2 3 4 5 6 7 8 9 10 11 12 13 14 15 16 17 18 19 20 21 22 23 24 25 26 27 28
000
ASUS41 KLWX 242310
RWRLWX

REGIONAL WEATHER ROUNDUP
NATIONAL WEATHER SERVICE BALTIMORE MD/WASHINGTON DC
700 PM EDT FRI OCT 24 2014

Note: "FAIR" indicates few or no clouds below 12,000 feet
with no significant weather and/or obstructions to visibility.
 TC=TEMPERATURE CELSIUS

 * =Non NWS site. Station does not report precipitation (e.g. rain,
    snow, etc.), thunder, or fog.

DCZ001-MDZ009-015-VAZ040>042-051-053>054-250000-
WASHINGTON METRO

CITY           SKY/WX    TMP DP  RH WIND       PRES   REMARKS
WASHINGTON NAT MOCLDY    66  38  35 W8        29.93R
DULLES         MOCLDY    59  36  42 CALM      29.94R
ANDREWS AFB    PTCLDY    60  40  47 W10       29.91R
FT BELVOIR     PTCLDY    60  40  47 W3        29.93R
QUANTICO       PTCLDY    56  47  71 NW5       29.94R
COLLEGE PARK*  PTCLDY    55  41  58 CALM      29.91R
LEESBURG*      CLOUDY    61  36  39 NW8       29.95R
MANASSAS*      MOCLDY    61  36  39 W3        29.94R
GAITHERSBURG*  MOCLDY    57  34  41 NW6       29.96R

$$

MDZ006>007-011-014-250000-
BALTIMORE METRO

CITY           SKY/WX    TMP DP  RH WIND       PRES   REMARKS
BWI AIRPORT    MOCLDY    60  35  39 NW3       29.90R
MD SCIENCE CTR   N/A     64  33  31 MISG      29.90R
MARTIN STATE   CLEAR     61  41  48 CALM      29.91R
ANNAPOLIS      PTCLDY    62  37  39 W6        29.90R
FORT MEADE*    MOCLDY    54  39  58 W5        29.93R

$$

MDZ012-015-019>023-250000-
MARYLAND EASTERN SHORE

CITY           SKY/WX    TMP DP  RH WIND       PRES   REMARKS
OCEAN CITY     CLEAR     58  46  64 W6        29.88R
SALISBURY      CLEAR     58  46  64 SW6       29.89R
BAY BRIDGE AP*   N/A     61  41  48 W7        29.90R
CAMBRIDGE*     PTCLDY    59  43  55 W5        29.90R

$$

MDZ017>025-250000-
SOUTHERN MARYLAND

CITY           SKY/WX    TMP DP  RH WIND       PRES   REMARKS
PATUXENT RIVER MOCLDY    58  41  53 W9        29.91R
ST INIGOES     CLEAR     60  42  51 W5        29.91R
LEONARDTOWN*   CLEAR     57  41  54 W3        29.93R

$$

MDZ003>005-250000-
NORTH CENTRAL MARYLAND

CITY           SKY/WX    TMP DP  RH WIND       PRES   REMARKS
FREDERICK*     CLEAR     64  30  27 NW10      29.95
HAGERSTOWN APT MOCLDY    57  35  43 NW3       29.94R
WESTMINSTER*   MOCLDY    59  36  41 W8        29.92R

$$

MDZ501>502-250000-
WESTERN MARYLAND

CITY           SKY/WX    TMP DP  RH WIND       PRES   REMARKS
OAKLAND*       PTCLDY    46  36  66 W6        30.01S
CUMBERLAND*    PTCLDY    59  36  41 CALM      30.03R

$$

VAZ025>031-250000-
SHENANDOAH VALLEY

CITY           SKY/WX    TMP DP  RH WIND       PRES   REMARKS
WINCHESTER*    MOCLDY    54  32  43 W3        29.95S
FRONT ROYAL*   FAIR      59  34  38 CALM      29.94S
LURAY*         FAIR      55  37  50 CALM      29.96S
NEW MARKET*    FAIR      53  38  57 CALM      29.96R
STAUNTON*      PTCLDY    56  41  56 CALM      29.98R
WAYNESBORO*    FAIR      58  37  44 SW5       29.96R

$$

WVZ021-048>050-054>055-250000-
EASTERN WEST VIRGINIA PANHANDLE

CITY           SKY/WX    TMP DP  RH WIND       PRES   REMARKS
MARTINSBURG    MOCLDY    60  32  34 W5        29.95S
PETERSBURG*    PTCLDY    55  33  43 W3        30.00S

$$

VAZ036>039-050-250000-
CENTRAL FOOTHILLS

CITY           SKY/WX    TMP DP  RH WIND       PRES   REMARKS
CHARLOTTESVILL PTCLDY    63  40  42 CALM      29.94R
CULPEPER*      PTCLDY    55  43  62 CALM      29.95R
ORANGE*        PTCLDY    54  45  71 CALM      29.96R
GORDONSVILLE*  FAIR      53  46  75 CALM      29.94R
WARRENTON*     FAIR      54  47  76 NW5       29.93S

$$

VAZ055>057-250000-
NORTH AND CENTRAL PIEDMONT

CITY           SKY/WX    TMP DP  RH WIND       PRES   REMARKS
FREDERICKSBRG* PTCLDY    57  49  74 W3        29.93R
STAFFORD*      PTCLDY    52  45  75 CALM      29.98R

$$

NCZ024-NYZ072-PAZ021-071-VAZ022-071-250000-
OTHER REGIONAL OBSERVATIONS

CITY           SKY/WX    TMP DP  RH WIND       PRES   REMARKS
NEW YORK CITY  PTCLDY    57  45  64 CALM      29.82R
PHILADELPHIA   MOCLDY    65  43  44 W12       29.84R
PITTSBURGH     PTCLDY    56  36  47 W5        30.00R
ROANOKE        PTCLDY    60  38  43 CALM      30.00R
RICHMOND       MOCLDY    58  44  60 CALM      29.94R
RALEIGH        MOCLDY    58  48  69 W3        29.98R

$$

ANZ530>537-250000-
MARINE OBSERVATIONS

STATION/POSITION TIME  TEMP    WIND        PRES
                       AIR SEA DIR/SP/G
                 (UTC) (F)     (DEG/KT/KT) (MB)
THOMAS PT LIGHT  2300   63 63  280/  6/  7 1013.6R
BALT KEY BRIDGE  2300   65     280/ 14/ 17 1011.8R
COVE POINT       2300   62     290/  6/  8 1012.6R
LEWISETTA        2300   62 60  280/  7/  9 1012.8R
SOLOMONS ISLAND  2300      64                N/A
PINEY POINT      2300          310/ 10/ 10   N/A

$$




USA.gov is the U.S. government's official web portal to all federal, state and local government web resources and services.